| time (UTC) | temp F | wind direction | speed MPH | gust MPH | rain 1hr in | rain 24hr in | rain mn in | humidity % | barometer mb |
| 20260510225004 | 50 | 96 | 2.0 | 3.0 | 0.00 | 0.37 | 0.00 | 97 | 1007.7 |
| 20260510224004 | 50 | 200 | 0.0 | 2.0 | 0.00 | 0.37 | 0.00 | 97 | 1007.7 |
| 20260510223004 | 50 | 58 | 0.0 | 4.0 | 0.00 | 0.37 | 0.00 | 98 | 1007.7 |
| 20260510222003 | 50 | 39 | 2.0 | 4.0 | 0.00 | 0.37 | 0.00 | 98 | 1007.5 |
| 20260510221007 | 50 | 57 | 0.0 | 4.0 | 0.00 | 0.37 | 0.00 | 98 | 1007.6 |
| 20260510220005 | 50 | 93 | 2.0 | 4.0 | 0.00 | 0.37 | 0.00 | 98 | 1007.6 |
| 20260510215004 | 50 | 54 | 1.0 | 3.0 | 0.00 | 0.37 | 0.37 | 98 | 1007.6 |
| 20260510214004 | 50 | 88 | 2.0 | 5.0 | 0.00 | 0.37 | 0.37 | 97 | 1007.6 |
| 20260510213004 | 50 | 99 | 1.0 | 4.0 | 0.00 | 0.37 | 0.37 | 97 | 1007.5 |
| 20260510212003 | 50 | 105 | 0.0 | 4.0 | 0.00 | 0.37 | 0.37 | 96 | 1007.5 |
| 20260510211003 | 50 | 57 | 2.0 | 4.0 | 0.00 | 0.37 | 0.37 | 94 | 1007.4 |
| 20260510210003 | 50 | 87 | 2.0 | 3.0 | 0.00 | 0.37 | 0.37 | 93 | 1007.4 |
| 20260510205004 | 50 | 51 | 1.0 | 2.0 | 0.00 | 0.37 | 0.37 | 92 | 1007.4 |
| 20260510204004 | 50 | 92 | 0.0 | 2.0 | 0.00 | 0.37 | 0.37 | 91 | 1007.1 |
| 20260510203004 | 51 | 90 | 1.0 | 2.0 | 0.01 | 0.38 | 0.37 | 90 | 1007.1 |
| 20260510202004 | 51 | 90 | 0.0 | 2.0 | 0.01 | 0.39 | 0.37 | 89 | 1006.8 |
| 20260510201004 | 51 | 79 | 2.0 | 3.0 | 0.01 | 0.40 | 0.37 | 87 | 1006.7 |
| 20260510200004 | 51 | 82 | 1.0 | 2.0 | 0.01 | 0.40 | 0.37 | 85 | 1006.6 |
| 20260510195003 | 51 | 85 | 0.0 | 2.0 | 0.01 | 0.40 | 0.37 | 84 | 1006.8 |
| 20260510194003 | 52 | 80 | 1.0 | 3.0 | 0.01 | 0.40 | 0.37 | 82 | 1006.7 |
| 20260510193004 | 52 | 144 | 1.0 | 5.0 | 0.00 | 0.39 | 0.35 | 81 | 1006.8 |
| 20260510192004 | 53 | 155 | 2.0 | 5.0 | 0.00 | 0.39 | 0.35 | 78 | 1006.8 |
| 20260510191004 | 54 | 143 | 0.0 | 3.0 | 0.00 | 0.39 | 0.35 | 73 | 1006.5 |
| 20260510190004 | 55 | 130 | 2.0 | 3.0 | 0.00 | 0.39 | 0.35 | 72 | 1006.5 |
| 20260510185003 | 56 | 336 | 0.0 | 2.0 | 0.00 | 0.39 | 0.35 | 68 | 1006.5 |
| 20260510184003 | 56 | 325 | 1.0 | 2.0 | 0.00 | 0.39 | 0.35 | 68 | 1006.2 |
| 20260510183003 | 56 | 309 | 0.0 | 2.0 | 0.00 | 0.39 | 0.35 | 67 | 1006.5 |
| 20260510182003 | 56 | 339 | 0.0 | 3.0 | 0.00 | 0.39 | 0.35 | 66 | 1006.3 |
| 20260510181003 | 56 | 333 | 2.0 | 4.0 | 0.00 | 0.39 | 0.35 | 63 | 1006.1 |
| 20260510180003 | 57 | 350 | 1.0 | 5.0 | 0.00 | 0.39 | 0.35 | 61 | 1006.1 |
| 20260510175004 | 58 | 346 | 3.0 | 5.0 | 0.00 | 0.39 | 0.35 | 59 | 1006.1 |
| 20260510174019 | 58 | 41 | 1.0 | 2.0 | 0.00 | 0.39 | 0.35 | 59 | 1006.0 |
| 20260510173019 | 59 | 82 | 2.0 | 5.0 | 0.00 | 0.39 | 0.35 | 58 | 1006.0 |
| 20260510172018 | 59 | 42 | 2.0 | 4.0 | 0.00 | 0.39 | 0.35 | 58 | 1005.9 |
| 20260510171018 | 59 | 50 | 3.0 | 4.0 | 0.00 | 0.39 | 0.35 | 59 | 1005.9 |
| 20260510170018 | 59 | 57 | 2.0 | 4.0 | 0.00 | 0.40 | 0.35 | 58 | 1005.9 |
| 20260510165018 | 60 | 90 | 2.0 | 6.0 | 0.00 | 0.44 | 0.35 | 55 | 1005.8 |
| 20260510164018 | 60 | 39 | 2.0 | 6.0 | 0.00 | 0.52 | 0.35 | 56 | 1005.8 |
| 20260510163018 | 61 | 347 | 4.0 | 5.0 | 0.00 | 0.56 | 0.35 | 56 | 1005.8 |
| 20260510162019 | 61 | 335 | 2.0 | 8.0 | 0.00 | 0.56 | 0.35 | 55 | 1005.7 |
| 20260510161019 | 60 | 17 | 0.0 | 6.0 | 0.00 | 0.56 | 0.35 | 58 | 1005.7 |
| 20260510160019 | 60 | 335 | 1.0 | 8.0 | 0.00 | 0.56 | 0.35 | 56 | 1006.0 |
| 20260510155018 | 60 | 328 | 3.0 | 8.0 | 0.00 | 0.56 | 0.35 | 58 | 1005.8 |
| 20260510154018 | 59 | 9 | 2.0 | 6.0 | 0.00 | 0.56 | 0.35 | 63 | 1005.7 |
| 20260510153018 | 58 | 339 | 1.0 | 8.0 | 0.00 | 0.56 | 0.35 | 64 | 1005.8 |
| 20260510152018 | 58 | 316 | 0.0 | 5.0 | 0.00 | 0.56 | 0.35 | 68 | 1005.9 |
| 20260510151018 | 57 | 3 | 2.0 | 3.0 | 0.00 | 0.56 | 0.35 | 65 | 1006.0 |
| 20260510150018 | 58 | 65 | 0.0 | 7.0 | 0.00 | 0.56 | 0.35 | 67 | 1005.8 |
| 20260510145018 | 58 | 12 | 2.0 | 4.0 | 0.00 | 0.56 | 0.35 | 72 | 1005.7 |
| 20260510144018 | 57 | 11 | 2.0 | 6.0 | 0.00 | 0.56 | 0.35 | 71 | 1005.9 |
| 20260510143019 | 57 | 344 | 2.0 | 5.0 | 0.00 | 0.56 | 0.35 | 76 | 1006.0 |
| 20260510142018 | 55 | 310 | 2.0 | 7.0 | 0.00 | 0.56 | 0.35 | 77 | 1006.1 |
| 20260510141018 | 54 | 344 | 3.0 | 5.0 | 0.00 | 0.56 | 0.35 | 76 | 1006.1 |
| 20260510140018 | 55 | 36 | 0.0 | 3.0 | 0.00 | 0.56 | 0.35 | 76 | 1006.0 |
| 20260510135018 | 56 | 344 | 0.0 | 8.0 | 0.01 | 0.56 | 0.35 | 77 | 1005.9 |
| 20260510134018 | 56 | 120 | 1.0 | 8.0 | 0.04 | 0.56 | 0.35 | 82 | 1005.8 |
| 20260510133018 | 55 | 73 | 4.0 | 8.0 | 0.04 | 0.56 | 0.35 | 90 | 1006.0 |
| 20260510132018 | 53 | 37 | 4.0 | 11.0 | 0.05 | 0.56 | 0.35 | 93 | 1006.2 |
| 20260510131018 | 52 | 23 | 4.0 | 11.0 | 0.05 | 0.56 | 0.35 | 95 | 1006.2 |
| 20260510130018 | 51 | 13 | 4.0 | 11.0 | 0.06 | 0.57 | 0.35 | 94 | 1006.4 |
| 20260510125018 | 50 | 15 | 3.0 | 5.0 | 0.09 | 0.56 | 0.34 | 90 | 1006.5 |
| 20260510124018 | 50 | 12 | 2.0 | 4.0 | 0.30 | 0.53 | 0.32 | 88 | 1006.5 |
| 20260510123018 | 50 | 331 | 2.0 | 4.0 | 0.30 | 0.53 | 0.32 | 88 | 1006.6 |
| 20260510122018 | 50 | 256 | 0.0 | 2.0 | 0.28 | 0.52 | 0.31 | 88 | 1006.4 |
| 20260510121018 | 49 | 41 | 0.0 | 2.0 | 0.28 | 0.52 | 0.31 | 86 | 1006.3 |
| 20260510120018 | 49 | 289 | 1.0 | 13.0 | 0.27 | 0.51 | 0.30 | 84 | 1006.0 |
| 20260510115018 | 50 | 197 | 7.0 | 22.0 | 0.21 | 0.45 | 0.24 | 79 | 1006.2 |
| 20260510114018 | 56 | 105 | 6.0 | 11.0 | 0.01 | 0.24 | 0.02 | 64 | 1005.8 |
| 20260510113018 | 56 | 79 | 5.0 | 10.0 | 0.01 | 0.24 | 0.02 | 65 | 1005.1 |
| 20260510112018 | 57 | 115 | 4.0 | 11.0 | 0.01 | 0.24 | 0.02 | 66 | 1005.1 |
| 20260510111018 | 56 | 102 | 4.0 | 10.0 | 0.01 | 0.24 | 0.02 | 67 | 1005.1 |
| 20260510110018 | 56 | 67 | 2.0 | 8.0 | 0.01 | 0.24 | 0.02 | 69 | 1005.2 |
| 20260510105018 | 56 | 88 | 2.0 | 8.0 | 0.01 | 0.24 | 0.02 | 63 | 1005.3 |
| 20260510104018 | 57 | 109 | 4.0 | 9.0 | 0.00 | 0.22 | 0.01 | 60 | 1005.3 |
| 20260510103017 | 57 | 102 | 4.0 | 9.0 | 0.00 | 0.22 | 0.01 | 63 | 1005.3 |
| 20260510102017 | 57 | 102 | 4.0 | 9.0 | 0.00 | 0.22 | 0.01 | 65 | 1005.4 |
| 20260510101017 | 56 | 115 | 4.0 | 11.0 | 0.00 | 0.22 | 0.01 | 64 | 1005.5 |
| 20260510100018 | 57 | 114 | 4.0 | 11.0 | 0.00 | 0.22 | 0.01 | 63 | 1005.6 |
| 20260510095018 | 57 | 109 | 5.0 | 11.0 | 0.00 | 0.22 | 0.01 | 65 | 1005.4 |
| 20260510094018 | 56 | 104 | 4.0 | 8.0 | 0.00 | 0.22 | 0.01 | 67 | 1005.3 |
| 20260510093018 | 55 | 78 | 5.0 | 9.0 | 0.00 | 0.22 | 0.01 | 69 | 1005.4 |
| 20260510092018 | 54 | 115 | 4.0 | 9.0 | 0.00 | 0.22 | 0.01 | 74 | 1005.3 |
| 20260510091018 | 54 | 91 | 6.0 | 9.0 | 0.00 | 0.22 | 0.01 | 73 | 1005.5 |
| 20260510090017 | 54 | 103 | 2.0 | 10.0 | 0.00 | 0.22 | 0.01 | 73 | 1005.4 |
| 20260510085017 | 54 | 86 | 4.0 | 11.0 | 0.00 | 0.22 | 0.01 | 73 | 1005.3 |
| 20260510084017 | 54 | 83 | 6.0 | 13.0 | 0.00 | 0.22 | 0.01 | 70 | 1005.2 |
| 20260510083018 | 55 | 81 | 5.0 | 10.0 | 0.00 | 0.22 | 0.01 | 73 | 1005.3 |
| 20260510082018 | 54 | 111 | 2.0 | 8.0 | 0.00 | 0.22 | 0.01 | 78 | 1005.6 |
| 20260510081018 | 53 | 78 | 4.0 | 8.0 | 0.00 | 0.22 | 0.01 | 76 | 1005.5 |
| 20260510080018 | 53 | 88 | 3.0 | 10.0 | 0.00 | 0.22 | 0.01 | 76 | 1005.6 |
| 20260510075018 | 53 | 90 | 4.0 | 10.0 | 0.00 | 0.22 | 0.01 | 76 | 1005.6 |
| 20260510074018 | 53 | 94 | 7.0 | 12.0 | 0.00 | 0.22 | 0.01 | 80 | 1005.6 |
| 20260510073017 | 52 | 93 | 6.0 | 11.0 | 0.00 | 0.22 | 0.01 | 88 | 1005.6 |
| 20260510072017 | 51 | 86 | 2.0 | 7.0 | 0.00 | 0.22 | 0.01 | 91 | 1005.3 |
| 20260510071017 | 51 | 85 | 4.0 | 9.0 | 0.00 | 0.22 | 0.01 | 91 | 1005.4 |
| 20260510070017 | 51 | 72 | 4.0 | 9.0 | 0.00 | 0.22 | 0.01 | 97 | 1005.4 |
| 20260510065017 | 50 | 70 | 2.0 | 6.0 | 0.00 | 0.22 | 0.01 | 99 | 1005.4 |
| 20260510064018 | 49 | 85 | 1.0 | 4.0 | 0.00 | 0.22 | 0.01 | 99 | 1005.5 |
| 20260510063018 | 48 | 92 | 2.0 | 4.0 | 0.00 | 0.22 | 0.01 | 99 | 1005.6 |
| 20260510062018 | 46 | 90 | 2.0 | 4.0 | 0.00 | 0.22 | 0.01 | 99 | 1005.1 |
| 20260510061018 | 46 | 83 | 1.0 | 3.0 | 0.00 | 0.22 | 0.01 | 99 | 1005.3 |
| 20260510060017 | 46 | 70 | 1.0 | 4.0 | 0.00 | 0.22 | 0.01 | 99 | 1005.5 |
| 20260510055017 | 46 | 71 | 2.0 | 6.0 | 0.00 | 0.22 | 0.01 | 99 | 1005.4 |
| 20260510054017 | 46 | 85 | 2.0 | 6.0 | 0.00 | 0.22 | 0.01 | 99 | 1005.4 |
| 20260510053017 | 46 | 86 | 2.0 | 3.0 | 0.00 | 0.22 | 0.01 | 99 | 1005.3 |
| 20260510052017 | 46 | 100 | 1.0 | 4.0 | 0.00 | 0.22 | 0.01 | 99 | 1005.3 |
| 20260510051017 | 46 | 122 | 1.0 | 8.0 | 0.00 | 0.22 | 0.01 | 99 | 1005.3 |
| 20260510050018 | 46 | 145 | 2.0 | 5.0 | 0.00 | 0.22 | 0.01 | 99 | 1005.2 |
| 20260510045018 | 46 | 47 | 0.0 | 3.0 | 0.00 | 0.22 | 0.01 | 99 | 1005.3 |
| 20260510044018 | 46 | 51 | 0.0 | 3.0 | 0.00 | 0.22 | 0.01 | 99 | 1005.2 |
| 20260510043017 | 46 | 51 | 2.0 | 4.0 | 0.00 | 0.22 | 0.01 | 99 | 1005.2 |
| 20260510042017 | 47 | 43 | 2.0 | 3.0 | 0.00 | 0.22 | 0.01 | 99 | 1005.2 |
| 20260510041017 | 47 | 71 | 0.0 | 4.0 | 0.00 | 0.22 | 0.01 | 99 | 1005.2 |
| 20260510040017 | 47 | 45 | 1.0 | 4.0 | 0.00 | 0.22 | 0.01 | 99 | 1005.1 |
| 20260510035017 | 47 | 68 | 2.0 | 4.0 | 0.00 | 0.22 | 0.01 | 99 | 1005.3 |
| 20260510034017 | 47 | 42 | 2.0 | 4.0 | 0.00 | 0.22 | 0.01 | 99 | 1005.3 |
| 20260510033017 | 47 | 73 | 1.0 | 2.0 | 0.00 | 0.22 | 0.01 | 99 | 1005.4 |
| 20260510032017 | 47 | 122 | 0.0 | 3.0 | 0.00 | 0.22 | 0.01 | 99 | 1005.5 |
| 20260510031017 | 47 | 130 | 0.0 | 2.0 | 0.00 | 0.22 | 0.01 | 99 | 1005.3 |
| 20260510030017 | 47 | 115 | 1.0 | 2.0 | 0.01 | 0.22 | 0.01 | 99 | 1005.3 |
| 20260510025018 | 48 | 111 | 0.0 | 3.0 | 0.01 | 0.22 | 0.01 | 99 | 1005.4 |
| 20260510024017 | 48 | 58 | 0.0 | 4.0 | 0.01 | 0.22 | 0.01 | 99 | 1005.5 |
| 20260510023017 | 49 | 328 | 0.0 | 3.0 | 0.01 | 0.22 | 0.01 | 99 | 1005.6 |
| 20260510022017 | 49 | 294 | 0.0 | 3.0 | 0.01 | 0.22 | 0.01 | 99 | 1005.7 |
| 20260510021017 | 49 | 0 | 0.0 | 0.0 | 0.01 | 0.22 | 0.01 | 99 | 1005.8 |
| 20260510020017 | 49 | 0 | 0.0 | 0.0 | 0.00 | 0.21 | 0.00 | 99 | 1005.8 |
| 20260510015017 | 49 | 0 | 0.0 | 0.0 | 0.00 | 0.21 | 0.00 | 99 | 1005.8 |
| 20260510014016 | 49 | 0 | 0.0 | 0.0 | 0.00 | 0.21 | 0.00 | 99 | 1005.8 |
| 20260510013017 | 49 | 45 | 0.0 | 1.0 | 0.00 | 0.21 | 0.00 | 99 | 1005.7 |
| 20260510012017 | 49 | 45 | 0.0 | 2.0 | 0.00 | 0.21 | 0.00 | 99 | 1005.6 |
| 20260510011017 | 49 | 181 | 0.0 | 1.0 | 0.00 | 0.21 | 0.00 | 99 | 1005.8 |
| 20260510010017 | 48 | 42 | 0.0 | 3.0 | 0.00 | 0.21 | 0.00 | 99 | 1006.0 |
| 20260510005017 | 49 | 283 | 2.0 | 3.0 | 0.00 | 0.21 | 0.00 | 99 | 1005.9 |
| 20260510004017 | 49 | 249 | 0.0 | 4.0 | 0.00 | 0.21 | 0.00 | 99 | 1005.9 |
| 20260510003017 | 49 | 227 | 1.0 | 4.0 | 0.00 | 0.21 | 0.00 | 99 | 1005.8 |
| 20260510002017 | 48 | 251 | 2.0 | 4.0 | 0.00 | 0.21 | 0.00 | 99 | 1005.8 |
| 20260510001017 | 48 | 256 | 1.0 | 4.0 | 0.00 | 0.21 | 0.00 | 99 | 1005.8 |
| 20260510000016 | 49 | 234 | 1.0 | 5.0 | 0.00 | 0.21 | 0.00 | 99 | 1005.6 |
| 20260509235017 | 49 | 235 | 2.0 | 4.0 | 0.00 | 0.22 | 0.00 | 96 | 1005.6 |
| 20260509234017 | 50 | 105 | 2.0 | 8.0 | 0.00 | 0.22 | 0.00 | 96 | 1005.4 |
| 20260509233017 | 49 | 88 | 4.0 | 10.0 | 0.00 | 0.22 | 0.00 | 99 | 1005.4 |
| 20260509232017 | 49 | 85 | 4.0 | 9.0 | 0.00 | 0.22 | 0.00 | 99 | 1005.4 |
| 20260509231017 | 49 | 126 | 1.0 | 2.0 | 0.00 | 0.22 | 0.00 | 99 | 1005.4 |
| 20260509230017 | 49 | 97 | 0.0 | 4.0 | 0.00 | 0.22 | 0.00 | 99 | 1005.4 |